Погода в Балашове

Россия / Саратовская область     51°33′16″N   43°08′47″E
темп.,
°C
ветер,
м/с
пор.,
м/с
влажн.,
%
обл.,
%
осадки,
мм/ч
давл.,
гПа
погр.,
м
8 мая, сб
сб801:00+6с239520 0.0 101760
04:00+5ссз34930 0.0 101764
07:00+6с23880 0.0 1017116
10:00+12всв116469 0.0 1016530
13:00+15ююз3446100 0.0 10141045
16:00+18ю564575 0.0 10131302
19:00+15ююв4963100 0.0 1011305
22:00+14юв71560100 0.0 1010345
9 мая, вс
вс901:00+14ю61480100 0.3 1009375
04:00+12ю3694100 0.3 1009107
07:00+11зюз2497100 1.2 1009194
10:00+9сз6892100 3.2 1010427
13:00+6сз6993100 4.8 1012543
16:00+6сз5892100 11.7 1014585
19:00+6ссз5993100 4.4 1016676
22:00+6ссз61194100 5.1 1017649
10 мая, пн
пн1001:00+6с81492100 0.8 1017675
04:00+5с81591100 1.7 1017745
07:00+5с91793100 3.1 1018708
10:00+6с111894100 7.9 1018606
13:00+8ссв101991100 2.5 1018654
16:00+9ссв122191100 4.2 1017650
19:00+10св101989100 1.6 1018669
22:00+10св91890100 2.1 1019515
11 мая, вт
вт1101:00+10св81791100 0.2 1019609
04:00+10св81793100 0.6 1018512
07:00+10вюв2397100 2.9 1020108
10:00+9в4894100 6.7 1023463
13:00+14вюв57697 0.0 1023988
16:00+17вюв4557100 0.0 10231378
19:00+13ю2477100 0.3 1024159
22:00+10ссз2392100 1.8 102479
12 мая, ср
ср1201:00+10всв2396100 0.1 102493
04:00+10в2294100 0.2 102343
07:00+10сз3697100 4.6 1022223
10:00+11ссз4797100 4.8 1022319
13:00+19вюв586596 0.1 10201374
16:00+19юв5872100 0.1 10201010
19:00+17вюв7137988 0.7 1020658
22:00+15вюв41184100 0.8 1020298